Regional Weather Roundup
Issued by NWS

Home | Current Version | Previous Version | Graphics & Text | Print | Product List | Glossary On
Versions: 1 2 3 4 5 6 7 8 9 10 11 12 13 14 15 16 17 18 19 20 21 22 23 24 25 26 27 28 29 30 31 32 33 34 35 36 37 38 39 40 41 42 43 44 45 46 47 48 49 50
000
ASUS43 KMKX 272259
RWRWI

WISCONSIN REGIONAL WEATHER ROUNDUP
NATIONAL WEATHER SERVICE MILWAUKEE/SULLIVAN WI
500 PM CST FRI FEB 27 2015

NOTE: "FAIR" INDICATES FEW OR NO CLOUDS BELOW 12,000 FEET WITH NO
SIGNIFICANT WEATHER AND/OR OBSTRUCTIONS TO VISIBILITY.

WIZ001-002-006>008-014>016-023>028-280000-
NORTHWEST WISCONSIN

CITY           SKY/WX    TMP DP  RH WIND       PRES   REMARKS
SUPERIOR ARPT  CLEAR     20  -5  32 W12       30.42F WCI   8
ASHLAND        CLEAR     17  -6  35 SW9       30.42S WCI   6
HAYWARD        CLEAR     14  -7  38 SW7       30.42S WCI   4
SIREN          CLEAR     16  -5  38 W9        30.45F WCI   5
CUMBERLAND     CLEAR     14  -4  44 SW9       30.43F WCI   2
RICE LAKE      CLEAR     14  -3  47 SW6       30.47F WCI   5
CHETEK         CLEAR     14  -2  48 SW3       30.47S
LADYSMITH      CLEAR     15  -8  35 SW8       30.45S WCI   4
EAU CLAIRE     CLEAR     12  -2  53 SW8       30.49F WCI   0
MENOMONIE      CLEAR     14   0  52 SW8       30.50S WCI   3
NEW RICHMOND   CLEAR     16   0  48 SW8       30.48S WCI   5
OSCEOLA        CLEAR     17  -1  44 SW7       30.51S WCI   8
$$

WIZ003>005-009-010-017-018-280000-
NORTH CENTRAL WISCONSIN

CITY           SKY/WX    TMP DP  RH WIND       PRES   REMARKS
MANITOWISH WTR CLEAR     15  -8  35 W10       30.35S WCI   3
ARBOR VITAE    CLEAR     17  -5  37 W9        30.35S WCI   5
WOODRUFF       CLEAR     17  -5  37 W9        30.35S WCI   5
RHINELANDER    CLEAR     14  -3  47 W10       30.36S WCI   1
EAGLE RIVER    CLEAR     16  -7  35 W9        30.34S WCI   5
LAND O LAKES   CLEAR     18  -7  33 W6        30.34S WCI  10
PHILLIPS       CLEAR     13  -5  44 SW9       30.38S WCI   1
TOMAHAWK       CLEAR     15  -6  38 CALM      30.39S
MEDFORD        CLEAR     10  -4  55 SW9       30.42F WCI  -4
MERRILL        CLEAR     12  -3  49 SW10      30.42F WCI  -1
$$

WIZ029-030-035-036-043>047-280000-
CENTRAL WISCONSIN

CITY           SKY/WX    TMP DP  RH WIND       PRES   REMARKS
WAUSAU         CLEAR     12  -4  48 W9        30.43F WCI   0
MOSINEE        CLEAR     12  -2  52 W8        30.45F WCI   1
MARSHFIELD     CLEAR     13  -3  49 SW9       30.46S WCI   1
STEVENS POINT  CLEAR     14  -7  37 W7        30.47S WCI   4
WAUPACA        CLEAR     19  -4  35 SW10      30.49S WCI   8
WAUTOMA        NOT AVBL
WISC RAPIDS    CLEAR     16  -7  35 W8        30.49S WCI   5
CAMP DOUGLAS   NOT AVBL
$$

WIZ011>013-019>022-031-037>040-048>050-280000-
NORTHEAST WISCONSIN

CITY           SKY/WX    TMP DP  RH WIND       PRES   REMARKS
ANTIGO         CLEAR     11  -4  51 W12       30.40S WCI  -4
SHAWANO        CLEAR     19  -6  33 W13       30.47S WCI   6
OCONTO         CLEAR     18  -3  40 SW8       30.47S WCI   7
STURGEON BAY   CLEAR     16   0  48 SW14      30.48S WCI   1
GREEN BAY      CLEAR     18  -1  43 W10       30.49S WCI   6
MANITOWOC      NOT AVBL
APPLETON       CLEAR     18  -6  35 W10       30.49S WCI   6
CLINTONVILLE   CLEAR     18  -6  35 W10       30.48S WCI   6
OSHKOSH        CLEAR     17  -2  43 SW7       30.50S WCI   8
$$

WIZ032>034-041-042-053>061-280000-
SOUTHWEST WISCONSIN

CITY           SKY/WX    TMP DP  RH WIND       PRES   REMARKS
LA CROSSE      CLEAR     15  -3  44 N3        30.55S
SPARTA         CLEAR     15  -6  39 W7        30.53F WCI   5
VIROQUA        CLEAR     12  -4  48 W9        30.49S WCI  -1
BOSCOBEL       CLEAR     14  -5  42 SW9       30.58S WCI   2
PRAIRIE DU CHI CLEAR     11  -6  46 W8        30.59S WCI  -1
PLATTEVILLE    CLEAR      9  -4  55 SW6       30.55S WCI   0
$$

WIZ056-057-062-063-064-067-068-280000-
SOUTH CENTRAL WISCONSIN

CITY           SKY/WX    TMP DP  RH WIND       PRES   REMARKS
REEDSBURG      CLEAR     15  -3  44 SW8       30.51S WCI   5
BARABOO/DELLS  CLEAR     15  -4  43 W6        30.51S WCI   7
LONE ROCK      NOT AVBL
MINERAL POINT  CLEAR     12  -6  44 W7        30.53S WCI   2
MADISON        CLEAR     14  -4  44 SW7       30.53S WCI   4
MIDDLETON      CLEAR     16  -5  38 SW10      30.54S WCI   4
WATERTOWN      CLEAR     14  -2  48 SW8       30.54S WCI   3
MONROE         CLEAR     12   0  57 W9        30.54S WCI   0
JANESVILLE     CLEAR     12  -4  48 W9        30.57S WCI   0
$$

WIZ051-052-058>065-066-070>072-280000-
SOUTHEAST WISCONSIN

CITY           SKY/WX    TMP DP  RH WIND       PRES   REMARKS
MILWAUKEE      CLEAR     15  -5  40 SW14      30.55S WCI   0
WAUKESHA       CLEAR     12  -6  44 SW10      30.54S WCI  -1
MILWAUKEE/TIMM CLEAR     16  -6  38 SW10      30.55S WCI   3
RACINE         CLEAR     13  -5  44 SW7       30.58S WCI   3
BURLINGTON     CLEAR     11  -5  47 W7        30.56S WCI   1
KENOSHA        CLEAR     11  -5  48 W10       30.56S WCI  -3
FOND DU LAC    CLEAR     16  -3  43 SW9       30.51S WCI   4
SHEBOYGAN      CLEAR     15  -1  49 SW12      30.51S WCI   2
WEST BEND      CLEAR     16  -4  41 SW10      30.52R WCI   3
JUNEAU         CLEAR     15  -2  47 SW12      30.53S WCI   1
$$

LSZ147-162-280000-
LAKE SUPERIOR

STATION/POSITION TIME  TEMP    WIND        PRES    WAVE
                       AIR SEA DIR/SP/G            HT/PER
                 (UTC) (F)     (DEG/KT/KT) (MB)    (FT/S)
DEVILS ISLAND    2200   17     230/ 16/ 20 1030.9F
PORT WING        2240   20     230/  7/ 11 1029.8F
SAXON HARBOR     2200   19     210/  6/ 14 1030.1F
$$

LMZ867-665-643>646-280000-
LAKE MICHIGAN

STATION/POSITION TIME  TEMP    WIND        PRES    WAVE
                       AIR SEA DIR/SP/G            HT/PER
                 (UTC) (F)     (DEG/KT/KT) (MB)    (FT/S)
NORTHPORT PIER   2200   18     180/  2/ 10 1031.2S
SISTER BAY       2113          220/ 16/ 17   N/A
KEWAUNEE LAKESHO 2200   17     250/ 10/ 14 1031.6S
SHEBOYGAN LAKESH 2200   17     250/ 12/ 15 1035.3F
PORT WASHINGTON  2240   19     240/  8/ 11 1034.5F
MILWAUKEE LAKESH 2200   17     230/  7/ 11   N/A
KENOSHA   LAKESH 2200   14     250/  9/ 15 1035.2S
$$

TC  - TEMPERATURE IN CELSIUS
VSB - VISIBILITY IN STATUTE MILES
WCI - WIND CHILL INDEX
HX  - HEAT INDEX




USA.gov is the U.S. government's official web portal to all federal, state and local government web resources and services.